TimeEST,TemperatureF,Dew PointF,Humidity,Sea Level PressureIn,VisibilityMPH,Wind Direction,Wind SpeedMPH,Gust SpeedMPH,PrecipitationIn,Events,Conditions,WindDirDegrees,DateUTC
12:15 AM,60.8,60.8,100,29.97,10.0,Calm,Calm,-,N/A,,Clear,0,2012-12-07 05:15:00
12:35 AM,60.8,60.8,100,29.97,5.0,Calm,Calm,-,N/A,,Clear,0,2012-12-07 05:35:00
1:15 AM,59.0,59.0,100,29.97,3.0,WSW,4.6,-,N/A,,Scattered Clouds,240,2012-12-07 06:15:00
1:35 AM,60.8,60.8,100,29.97,2.5,Calm,Calm,-,N/A,,Mostly Cloudy,0,2012-12-07 06:35:00
1:55 AM,59.0,59.0,100,29.96,3.0,Calm,Calm,-,N/A,,Scattered Clouds,0,2012-12-07 06:55:00
2:15 AM,59.0,59.0,100,29.96,1.0,Calm,Calm,-,N/A,,Mostly Cloudy,0,2012-12-07 07:15:00
2:35 AM,59.0,59.0,100,29.96,1.5,Calm,Calm,-,N/A,,Mostly Cloudy,0,2012-12-07 07:35:00
3:15 AM,59.0,59.0,100,29.94,2.5,Calm,Calm,-,N/A,,Clear,0,2012-12-07 08:15:00
3:35 AM,59.0,59.0,100,29.94,2.5,Calm,Calm,-,N/A,,Clear,0,2012-12-07 08:35:00
3:55 AM,59.0,59.0,100,29.93,4.0,Calm,Calm,-,N/A,,Clear,0,2012-12-07 08:55:00
4:15 AM,59.0,59.0,100,29.94,1.2,Calm,Calm,-,N/A,,Mist,0,2012-12-07 09:15:00
4:35 AM,59.0,59.0,100,29.94,1.5,Calm,Calm,-,N/A,,Mist,0,2012-12-07 09:35:00
4:55 AM,57.2,57.2,100,29.94,1.0,Calm,Calm,-,N/A,,Mostly Cloudy,0,2012-12-07 09:55:00
5:15 AM,59.0,59.0,100,29.95,0.8,Calm,Calm,-,N/A,,Mostly Cloudy,0,2012-12-07 10:15:00
5:35 AM,59.0,59.0,100,29.96,0.5,Calm,Calm,-,N/A,Fog,Fog,0,2012-12-07 10:35:00
6:15 AM,59.0,59.0,100,29.97,0.5,Calm,Calm,-,N/A,Fog,Fog,0,2012-12-07 11:15:00
6:35 AM,59.0,59.0,100,29.97,0.2,Calm,Calm,-,N/A,Fog,Fog,0,2012-12-07 11:35:00
6:55 AM,59.0,59.0,100,29.98,0.5,Calm,Calm,-,N/A,Fog,Fog,0,2012-12-07 11:55:00
7:15 AM,59.0,59.0,100,29.97,1.0,NW,3.5,-,N/A,,Mostly Cloudy,320,2012-12-07 12:15:00
7:35 AM,59.0,59.0,100,29.98,2.0,Calm,Calm,-,N/A,,Overcast,0,2012-12-07 12:35:00
7:55 AM,59.0,59.0,100,29.98,1.0,Calm,Calm,-,N/A,,Overcast,0,2012-12-07 12:55:00
8:15 AM,59.0,59.0,100,29.99,0.2,North,3.5,-,N/A,Fog,Fog,360,2012-12-07 13:15:00
8:35 AM,60.8,60.8,100,29.99,0.5,Calm,Calm,-,N/A,Fog,Fog,0,2012-12-07 13:35:00
8:55 AM,62.6,62.6,100,30.00,2.0,Calm,Calm,-,N/A,,Overcast,0,2012-12-07 13:55:00
9:15 AM,64.4,64.4,100,30.01,4.0,NNE,3.5,-,N/A,,Scattered Clouds,20,2012-12-07 14:15:00
9:35 AM,66.2,64.4,94,30.02,7.0,NNE,5.8,-,N/A,,Clear,20,2012-12-07 14:35:00
9:55 AM,68.0,66.2,94,30.02,10.0,North,5.8,-,N/A,,Clear,360,2012-12-07 14:55:00
10:15 AM,69.8,66.2,88,30.02,10.0,NNE,3.5,-,N/A,,Scattered Clouds,30,2012-12-07 15:15:00
10:35 AM,71.6,66.2,83,30.02,10.0,Calm,Calm,-,N/A,Thunderstorm,Scattered Clouds,0,2012-12-07 15:35:00
10:55 AM,73.4,66.2,78,30.01,10.0,ENE,3.5,-,N/A,,Scattered Clouds,60,2012-12-07 15:55:00
11:15 AM,73.4,64.4,73,30.01,10.0,Calm,Calm,-,N/A,,Scattered Clouds,0,2012-12-07 16:15:00
11:35 AM,73.4,64.4,73,30.01,10.0,Calm,Calm,-,N/A,,Mostly Cloudy,0,2012-12-07 16:35:00
11:55 AM,73.4,64.4,73,30.00,10.0,Calm,Calm,-,N/A,,Overcast,0,2012-12-07 16:55:00
12:15 PM,75.2,64.4,69,29.99,10.0,Calm,Calm,-,N/A,,Overcast,0,2012-12-07 17:15:00
12:35 PM,77.0,64.4,65,29.98,10.0,South,5.8,-,N/A,,Mostly Cloudy,180,2012-12-07 17:35:00
12:55 PM,77.0,62.6,61,29.97,10.0,SE,4.6,-,N/A,,Scattered Clouds,130,2012-12-07 17:55:00
1:15 PM,77.0,62.6,61,29.96,10.0,SE,5.8,-,N/A,,Scattered Clouds,140,2012-12-07 18:15:00
1:35 PM,77.0,62.6,61,29.95,10.0,SE,5.8,-,N/A,,Scattered Clouds,140,2012-12-07 18:35:00
1:55 PM,78.8,62.6,57,29.94,10.0,SSW,5.8,-,N/A,,Scattered Clouds,210,2012-12-07 18:55:00
2:15 PM,78.8,64.4,61,29.94,10.0,South,4.6,-,N/A,,Scattered Clouds,170,2012-12-07 19:15:00
2:35 PM,78.8,62.6,57,29.93,10.0,South,8.1,-,N/A,,Scattered Clouds,180,2012-12-07 19:35:00
2:55 PM,78.8,60.8,54,29.93,10.0,South,6.9,-,N/A,,Clear,190,2012-12-07 19:55:00
3:15 PM,78.8,60.8,54,29.93,10.0,SSE,5.8,-,N/A,,Clear,150,2012-12-07 20:15:00
3:35 PM,77.0,64.4,65,29.93,10.0,East,6.9,-,N/A,,Clear,100,2012-12-07 20:35:00
3:55 PM,77.0,64.4,65,29.93,10.0,SE,4.6,-,N/A,,Clear,130,2012-12-07 20:55:00
4:15 PM,77.0,64.4,65,29.92,10.0,East,3.5,-,N/A,,Clear,100,2012-12-07 21:15:00
4:35 PM,77.0,62.6,61,29.93,10.0,Calm,Calm,-,N/A,,Clear,0,2012-12-07 21:35:00
4:55 PM,75.2,62.6,65,29.93,10.0,Calm,Calm,-,N/A,,Clear,0,2012-12-07 21:55:00
5:15 PM,73.4,64.4,73,29.94,10.0,Calm,Calm,-,N/A,,Clear,0,2012-12-07 22:15:00
5:35 PM,73.4,64.4,73,29.94,10.0,ENE,3.5,-,N/A,,Clear,60,2012-12-07 22:35:00
5:55 PM,71.6,64.4,78,29.94,10.0,ENE,3.5,-,N/A,,Clear,70,2012-12-07 22:55:00
6:15 PM,69.8,64.4,83,29.95,10.0,Calm,Calm,-,N/A,,Clear,0,2012-12-07 23:15:00
6:35 PM,68.0,64.4,88,29.96,10.0,East,4.6,-,N/A,,Clear,80,2012-12-07 23:35:00
6:55 PM,68.0,64.4,88,29.96,10.0,East,5.8,-,N/A,,Scattered Clouds,90,2012-12-07 23:55:00
7:35 PM,68.0,64.4,88,29.97,10.0,ENE,3.5,-,N/A,,Clear,70,2012-12-08 00:35:00
7:55 PM,68.0,64.4,88,29.98,10.0,Calm,Calm,-,N/A,,Clear,0,2012-12-08 00:55:00
8:15 PM,66.2,64.4,94,29.98,10.0,Calm,Calm,-,N/A,,Clear,0,2012-12-08 01:15:00
8:35 PM,66.2,64.4,94,29.99,10.0,Calm,Calm,-,N/A,,Scattered Clouds,0,2012-12-08 01:35:00
8:55 PM,66.2,64.4,94,29.99,10.0,Calm,Calm,-,N/A,,Scattered Clouds,0,2012-12-08 01:55:00
9:15 PM,66.2,64.4,94,29.99,10.0,East,3.5,-,N/A,,Scattered Clouds,90,2012-12-08 02:15:00
9:35 PM,66.2,64.4,94,29.99,10.0,East,3.5,-,N/A,,Mostly Cloudy,90,2012-12-08 02:35:00
10:15 PM,66.2,64.4,94,30.00,10.0,Calm,Calm,-,N/A,,Scattered Clouds,0,2012-12-08 03:15:00
10:35 PM,66.2,64.4,94,30.00,10.0,East,3.5,-,N/A,,Scattered Clouds,100,2012-12-08 03:35:00
10:55 PM,64.4,64.4,100,30.01,10.0,Calm,Calm,-,N/A,,Scattered Clouds,0,2012-12-08 03:55:00
11:15 PM,64.4,64.4,100,30.01,10.0,Calm,Calm,-,N/A,,Mostly Cloudy,0,2012-12-08 04:15:00
11:55 PM,64.4,62.6,94,30.01,10.0,Calm,Calm,-,N/A,,Scattered Clouds,0,2012-12-08 04:55:00